Tracking 19281 objects as of 16-Nov-2018
HD Live streaming from Space Station
objects crossing your sky now

RADUGA 7

Track RADUGA 7 now!
RADUGA 7 is classified as:


NORAD ID: 12003
Int'l Code: 1980-081A
Perigee: 35,743.3 km
Apogee: 35,842.3 km
Inclination: 12.1 °
Period: 1,436.0 minutes
Semi major axis: 42163 km
RCS: 7.9432 m2 (large)
Launch date: October 5, 1980
Source: Commonwealth of Independent States (former USSR) (CIS)
Launch site: TYURATAM MISSILE AND SPACE COMPLEX (TTMTR)
aabbcc
Your satellite tracking list
Your tracking list is empty




NASA's NSSDC Master Catalog

Two Line Element Set (TLE):
1 12003U 80081A   18320.80881616 -.00000198  00000-0  00000+0 0  9993
2 12003  12.1189 319.4779 0011747 258.6463 103.6246  1.00275119 95657
Source of the keplerian elements: AFSPC